Find Starlink 36964

NORAD ID: 68184 Int'l Des: 2026-050 Owner: SPXS Country: US Constellation: starlink operational
LEOCIRCULAR

現在のビュー

3D地球を読み込み中...

About Starlink 36964

Starlink 36964 (NORAD 68184) is a starlink constellation satellite (v2 mini) launched Mar 14, 2026 by SPXS of US. It operates in LEO, CIRCULAR orbit with a mass of 575.00 kg.

Starlink 36964について

説明を読み込み中...

次回通過

Passes for default location (London). Set your location on the main map for personalized predictions.

高度履歴

Loading altitude history...

軌道要素

1 68184U 26050T 26166.23188694 .00013657 00000-0 41472-3 0 9995
2 68184 53.1576 172.5218 0001304 110.2450 249.8693 15.34391409 15638
Epoch: Jun 15, 2026 • Age: 8 hours

現在のステータス

高度 465.6 km
速度 7.63 km/s
衛星直下点 -8.71°S, 60.6°E
打ち上げ日 Mar 14, 2026
運用期間 0.2 years
タイプ internet

技術仕様

分類 Payload
質量 575.00 kg
乾燥質量 530.00 kg
総質量 575.00 kg
長さ 0.30 m
直径 4.10 m
スパン 29.00 m
形状 Box + pan
製造者 SPXS
バスタイプ Starlink V2MO
フェーズステータス In Orbit
所有者/国 SPXS/US

Most Searched